Regional Weather Roundup
Issued by NWS Cleveland, OH

Home | Current Version | Previous Version | Graphics & Text | Print | Product List | Glossary On
Versions: 1 2 3 4 5 6 7 8 9 10 11 12 13 14 15 16 17 18 19 20 21 22 23 24 25 26 27 28 29 30 31 32 33 34 35 36 37 38 39 40 41 42 43 44 45 46 47 48 49 50
000
ASUS41 KCLE 241000
RWRCLE
OHIO REGIONAL WEATHER ROUNDUP
NATIONAL WEATHER SERVICE WILMINGTON, OH
600 AM EDT SUN SEP 24 2017

NOTE: "FAIR" INDICATES FEW OR NO CLOUDS BELOW 12,000 FEET WITH NO
SIGNIFICANT WEATHER AND/OR OBSTRUCTIONS TO VISIBILITY.

OHZ001>008-015>018-024>027-034-035-043-044-241100-
   NORTHWEST OHIO

CITY           SKY/WX    TMP DP  RH WIND       PRES   REMARKS
DEFIANCE       FAIR      61  58  90 CALM      30.14R
FINDLAY        FAIR      63  57  81 CALM      30.13S
TOLEDO EXPRESS FAIR      62  62 100 CALM      30.14R
TOLEDO EXEC    FAIR      66  60  81 N3        30.15R
LIMA           FAIR      61  59  93 CALM      30.14R
$$

OHZ009>014-019>023-028>033-038-089-241100-
   NORTHEAST OHIO

CITY           SKY/WX    TMP DP  RH WIND       PRES   REMARKS
CLE-HOPKINS    FAIR      66  60  81 CALM      30.16S
CLE-LAKEFRONT  FAIR      69  61  75 S3        30.13S
CUY CO. ARPT   NOT AVBL
LORAIN-ELYRIA  FAIR      58  52  80 CALM      30.16R
ASHTABULA      FAIR      60  59  96 CALM      30.17R
AKRON-CANTON   FAIR      64  58  80 NE6       30.17R
WOOSTER        NOT AVBL
MANSFIELD      FAIR      63  59  87 CALM      30.16S
YOUNGSTOWN     FAIR      60  59  96 E5        30.17R
$$

OHZ042-051>053-060>062-070>072-077>081-241100-
  SOUTHWEST OHIO

CITY           SKY/WX    TMP DP  RH WIND       PRES   REMARKS
CINC-COVINGTON FAIR      67  62  84 E6        30.09S
CINC-LUNKEN    FAIR      60  60 100 CALM      30.11R FOG
HAMILTON       FAIR      57  57 100 CALM      30.11S FOG
DAYTON         NOT AVBL
WRIGHT-PAT AFB NOT AVBL
DAYTON GENERAL FAIR      62  57  83 NE9       30.11S
WILMINGTON     FAIR      61  58  90 NE3       30.12R
$$

OHZ036-037-039>041-045>050-054>059-063>069-073>076-082>088-241100-
  CENTRAL AND SOUTHEAST OHIO

CITY           SKY/WX    TMP DP  RH WIND       PRES   REMARKS
COLUMBUS       FAIR      63  60  90 N5        30.12S
OSU AIRPORT    FAIR      63  60  90 NE6       30.13S
BOLTON FIELD   NOT AVBL
RICKENBACK AFB NOT AVBL
NEWARK         FOG       56  55  97 CALM      30.14S VSB 3/4
MARION         FAIR      61  56  83 N5        30.15R
LANCASTER      FAIR      56  54  93 CALM      30.14R
ZANESVILLE     FAIR      58  55  90 CALM      30.14S
NEW PHILLY     FAIR      59  58  96 CALM      30.16R
$$



USA.gov is the U.S. government's official web portal to all federal, state and local government web resources and services.